Theta_e
308 307 308 309 313 314 315 316 317 318 319 320 321 323 323 323 322 323 324 325 326 325 325 323 323 321 322 322 322 322 321 324 323 336 338 339 340 339 339 339 340 339 337 338
307 307 307 309 310 312 314 315 315 316 316 318 320 322 322 321 321 322 323 324 324 324 324 325 324 324 324 323 321 321 321 325 325 336 339 339 339 338 339 340 340 339 338 338
308 307 307 308 309 311 312 314 315 316 316 316 317 319 320 319 319 319 319 320 320 322 322 325 325 324 324 324 320 322 322 327 327 335 337 337 338 338 339 340 340 340 339 338
307 307 305 307 309 310 313 312 313 314 315 318 316 320 320 320 320 319 319 319 320 319 320 322 324 325 324 323 323 321 325 331 333 335 337 339 340 341 341 340 340 340 339 339
307 306 305 307 308 309 310 310 312 313 315 316 316 317 318 318 318 318 319 319 318 319 321 320 320 322 320 321 322 326 335 339 338 338 339 340 341 339 340 340 341 341 339 339
309 307 305 305 307 308 309 310 311 311 313 316 315 316 317 317 318 317 317 317 318 318 318 318 318 318 319 320 329 337 340 341 339 339 339 340 340 338 339 338 338 337 336 336
310 310 308 306 306 306 307 310 312 313 313 314 313 315 316 318 317 316 316 317 318 319 319 319 320 321 321 329 336 340 341 341 339 339 338 339 338 337 338 337 336 336 336 336
313 314 310 309 307 306 307 309 310 311 312 312 312 314 315 316 316 316 316 317 318 319 321 322 322 320 323 330 337 340 342 341 339 338 338 338 336 337 337 337 336 336 336 337
314 315 311 311 310 308 308 307 309 309 311 312 312 313 313 314 316 316 316 317 318 321 325 329 330 323 328 336 340 342 342 341 340 338 338 337 337 336 336 335 336 336 335 335
312 314 311 311 310 308 309 309 308 308 310 310 312 313 314 316 314 316 316 317 319 325 331 334 332 327 334 338 341 341 341 340 338 337 336 335 336 336 335 335 334 334 334 333
311 312 311 310 310 311 310 310 310 309 310 311 311 313 316 315 316 316 316 316 317 322 332 336 335 335 337 339 341 341 339 337 336 336 335 335 335 335 335 335 335 335 334 334
310 312 313 311 309 309 309 310 309 312 311 310 311 312 314 315 314 316 316 316 317 320 329 336 334 333 338 340 341 340 338 337 336 335 335 335 334 334 334 334 334 334 335 334
310 310 310 308 313 311 311 310 310 310 312 314 312 311 313 314 315 316 316 316 317 320 326 336 334 335 336 339 340 338 337 336 335 335 334 334 334 334 334 334 334 334 334 333
310 311 311 311 310 311 312 311 310 312 314 312 313 313 313 314 315 316 316 317 318 319 326 336 336 335 335 339 338 337 336 335 334 333 332 333 333 333 333 334 334 334 333 332
310 311 310 309 310 310 311 311 312 312 311 313 311 312 313 315 315 315 316 318 318 320 324 332 337 336 338 339 337 336 335 334 332 331 332 333 333 333 333 334 334 333 332 332
310 312 310 310 308 308 310 310 310 312 312 312 311 312 311 312 312 313 316 319 320 322 327 332 338 338 339 339 337 336 334 333 331 332 333 333 332 333 333 333 333 333 333 332
311 312 311 309 307 311 312 311 311 312 312 311 312 311 311 311 312 314 320 321 322 324 328 333 337 340 340 338 337 336 334 332 331 332 333 332 332 332 333 333 333 333 333 331
310 311 310 309 310 313 311 316 315 317 316 317 317 312 312 312 314 319 320 320 322 326 330 334 337 340 339 337 336 336 333 332 330 332 332 332 332 332 332 333 333 332 332 330
308 310 311 312 314 312 311 312 313 314 315 317 316 314 314 315 319 319 318 324 324 325 329 334 336 338 338 337 336 335 333 330 331 332 332 332 331 332 332 333 333 331 331 331
309 306 312 314 315 316 317 312 308 309 317 317 318 318 320 320 320 320 325 321 322 323 330 335 336 338 338 336 335 334 332 331 331 332 332 332 330 332 332 332 332 331 331 330
316 314 312 313 316 315 313 311 307 317 318 310 316 316 318 320 319 320 320 321 322 325 331 336 336 338 337 336 335 334 332 331 331 332 332 332 331 332 332 332 331 331 330 329
316 317 317 315 318 319 311 310 312 310 309 312 315 315 315 318 318 320 321 322 323 329 334 335 337 337 336 335 336 333 332 331 332 332 332 332 332 331 331 331 331 331 330 329
315 314 315 312 315 311 311 313 309 309 312 314 312 313 315 316 319 319 321 322 325 330 335 335 337 336 334 335 336 334 332 332 332 332 333 332 332 331 331 330 331 330 330 329
311 312 314 313 313 312 312 312 312 312 313 313 312 313 314 316 318 318 320 324 330 333 336 336 336 336 334 335 336 335 332 331 332 333 333 333 332 331 331 331 329 329 330 328
312 312 312 312 312 312 311 311 312 312 312 313 312 313 315 316 317 317 318 322 332 335 336 334 335 335 334 334 334 334 332 331 332 333 333 333 333 332 331 331 330 329 330 328
312 313 313 313 312 313 312 312 311 312 313 313 312 313 315 316 317 316 319 328 334 335 334 333 333 334 333 333 333 331 330 331 332 333 333 333 332 332 331 327 324 327 328 328
Wind_Speed
5 9 21 25 21 24 12 16 23 18 13 14 23 30 26 22 22 24 24 22 19 19 17 18 17 23 21 29 31 24 21 20 12 10 13 13 14 14 14 14 15 15 16 16
5 18 18 14 15 20 24 21 11 10 5 9 19 26 19 13 18 19 21 21 21 20 17 15 20 20 23 25 30 27 19 17 13 14 12 7 12 11 12 13 13 14 15 16
13 14 8 16 19 18 20 25 20 9 4 10 11 20 21 17 19 20 20 20 19 19 18 16 17 22 24 21 29 23 18 15 14 16 14 11 10 9 11 12 12 14 16 17
11 15 14 17 19 20 21 14 19 18 11 13 4 13 17 17 19 18 17 18 18 17 18 20 19 19 23 26 23 18 14 11 14 19 16 17 13 13 11 14 13 14 15 15
16 10 10 18 16 15 17 7 11 11 16 15 20 11 22 17 21 23 20 18 18 22 22 22 22 22 27 23 19 15 9 8 12 16 16 17 12 9 13 13 16 14 14 14
18 15 7 8 11 14 10 18 18 10 10 14 18 13 21 18 21 20 15 15 16 16 17 19 21 22 22 16 11 8 9 11 14 15 15 16 18 17 18 16 16 14 13 12
9 18 16 12 12 6 10 12 9 11 11 17 11 12 21 11 11 7 5 9 13 13 13 13 14 13 15 11 8 9 12 14 15 16 16 17 20 21 20 19 17 15 13 11
3 5 6 3 13 13 14 14 10 17 13 14 13 13 9 17 18 17 13 7 10 11 11 12 13 11 9 10 10 12 16 17 18 17 17 17 19 17 16 15 15 13 12 11
5 3 9 6 9 12 10 11 14 4 1 8 11 22 18 14 11 8 5 7 15 17 16 17 16 10 6 10 14 16 19 19 19 19 17 16 16 16 15 15 13 12 12 11
4 7 5 9 9 5 6 7 10 6 7 9 8 17 9 3 13 2 8 12 16 18 17 16 11 4 7 12 15 18 21 22 21 20 18 17 16 15 15 14 13 12 11 10
7 3 2 4 4 6 3 6 4 6 10 7 6 4 6 18 6 7 8 12 18 17 17 14 9 2 6 13 18 20 20 22 21 20 19 18 16 14 13 12 11 10 9 9
4 5 6 7 5 4 9 6 2 6 18 12 8 5 7 10 7 12 14 18 19 16 16 11 7 1 7 14 17 20 21 22 21 21 19 17 15 14 12 10 9 9 10 10
6 1 6 7 5 5 1 4 4 6 5 15 15 9 8 5 13 14 18 20 19 18 16 8 3 3 7 13 17 19 21 23 23 22 19 16 14 13 11 10 10 10 10 10
10 5 9 9 8 9 11 11 10 7 9 14 19 19 24 21 21 23 21 19 19 17 15 8 1 4 8 14 17 19 21 23 22 20 18 16 13 11 11 10 10 10 11 11
6 10 11 14 17 18 18 19 18 17 17 14 16 19 22 20 18 20 19 20 20 19 16 9 5 8 11 14 17 20 21 22 21 20 18 15 12 11 11 11 10 10 12 12
3 6 10 17 15 18 19 19 19 21 21 23 22 23 21 24 23 22 19 20 19 18 17 13 8 12 14 16 19 22 21 20 21 19 16 14 12 13 12 11 10 11 12 11
5 5 3 6 6 7 11 18 21 19 18 17 21 19 18 25 21 19 18 19 20 20 18 16 11 14 15 20 23 22 22 19 20 18 16 14 13 13 12 11 10 11 12 12
4 6 4 5 5 5 2 6 7 13 19 19 21 21 18 19 19 16 20 20 21 19 18 16 10 14 20 23 23 23 23 20 20 18 17 14 13 13 12 11 10 10 9 10
13 4 3 4 5 9 6 4 3 5 9 13 10 12 15 16 17 22 20 8 12 15 17 15 13 19 22 24 24 24 23 21 20 18 17 15 14 13 13 12 11 9 10 10
8 7 3 4 4 3 0 2 9 6 6 3 5 5 9 6 7 14 10 20 18 16 14 11 14 20 23 26 27 25 23 22 20 19 17 16 15 13 12 11 11 9 10 11
4 2 7 10 6 6 5 12 8 3 4 14 7 6 9 6 8 17 20 21 17 17 14 11 16 19 23 27 28 25 23 22 21 18 17 15 14 12 12 12 10 10 11 11
4 5 2 3 3 2 5 7 4 6 13 14 8 7 9 11 15 15 17 17 17 16 10 15 15 19 24 27 28 24 22 23 20 18 17 15 13 12 12 13 11 11 11 11
3 3 4 2 3 8 13 8 11 14 13 9 10 8 12 14 13 14 14 16 15 13 9 17 17 20 22 26 27 24 23 22 20 19 17 14 13 12 13 13 12 11 11 11
4 3 3 8 3 11 7 9 10 13 13 9 7 10 12 15 14 14 15 13 10 9 10 16 17 15 19 24 25 24 23 21 20 19 17 14 13 13 12 11 11 11 11 10
4 7 9 7 8 14 7 13 13 13 12 8 7 10 12 12 12 14 15 12 8 6 12 15 15 15 19 23 22 22 23 21 19 18 17 15 12 13 13 10 9 9 9 10
3 3 5 6 14 9 15 15 18 12 12 6 9 12 12 10 13 14 10 7 2 5 10 9 10 14 17 20 20 21 22 23 20 18 17 16 14 13 13 11 9 10 9 11
Wind_Direction
212 222 221 223 228 247 259 264 245 259 231 209 221 244 250 247 259 262 269 275 276 278 286 287 279 281 277 283 283 288 304 309 262 209 191 200 202 198 202 204 198 201 204 203
222 234 251 250 249 244 246 255 266 252 245 235 244 250 253 249 255 258 265 270 275 280 279 278 275 274 273 275 283 284 298 291 247 211 200 183 171 197 194 196 187 191 193 195
240 264 251 248 239 244 237 240 240 250 291 249 274 267 254 246 248 253 258 263 265 265 272 272 272 272 277 274 279 282 293 272 233 202 187 167 143 135 173 182 176 189 185 188
245 255 238 238 238 229 242 236 240 239 253 243 202 275 259 252 252 252 259 263 260 268 258 257 263 264 257 264 273 282 281 248 217 198 190 181 173 164 180 172 173 175 178 185
243 274 232 225 234 226 235 206 203 216 228 243 240 263 261 254 257 257 256 256 267 263 261 264 261 261 263 264 267 271 241 205 195 190 187 176 159 150 149 155 160 158 173 182
258 252 280 287 213 219 227 215 237 251 246 236 232 231 268 248 258 263 265 260 273 278 278 272 264 262 259 260 246 214 187 176 175 175 177 169 151 144 144 153 148 159 169 177
269 239 242 254 256 220 212 189 191 216 217 237 215 220 245 263 264 271 223 323 306 288 288 279 270 259 249 228 202 182 172 164 166 163 163 155 150 150 156 161 161 162 168 178
325 265 182 332 230 240 213 199 206 219 216 231 209 230 241 230 267 272 265 314 330 328 329 305 296 270 250 212 190 173 163 155 157 153 148 146 147 153 160 161 164 170 174 178
313 240 286 286 318 228 198 213 223 278 157 227 197 243 269 258 275 257 293 329 351 343 341 332 318 286 228 182 170 162 155 150 149 146 144 143 149 150 154 160 161 160 160 165
303 298 165 294 330 192 245 216 194 210 206 208 207 239 232 197 209 18 35 4 343 347 346 342 336 283 180 162 156 155 151 146 144 141 141 144 144 144 145 146 150 154 161 169
328 273 291 288 194 279 238 233 245 244 238 244 241 218 218 224 97 47 14 352 352 346 348 351 347 4 160 153 151 147 145 141 138 139 139 136 136 137 141 145 151 157 161 166
326 299 289 270 270 262 251 285 257 250 215 239 279 278 114 119 69 8 351 347 344 344 350 350 341 50 161 154 149 149 145 142 140 137 136 135 139 141 144 148 151 153 154 164
352 308 312 312 158 128 202 197 236 254 262 249 239 229 189 262 324 340 335 338 336 337 344 345 332 171 157 153 152 149 149 144 142 141 140 141 143 146 150 146 146 150 158 162
313 260 254 266 294 305 292 289 283 271 250 247 243 258 269 284 308 319 328 330 326 325 338 327 266 184 163 160 155 155 151 146 145 143 145 144 148 150 148 148 153 158 162 160
271 256 252 255 265 276 276 277 277 261 254 251 261 253 265 285 298 311 313 314 315 318 323 317 225 193 170 168 161 158 155 150 147 146 147 149 149 146 146 152 157 160 164 159
248 264 252 268 267 260 266 263 262 258 257 256 259 262 269 278 280 281 296 301 303 306 311 316 222 197 178 174 168 159 157 153 150 148 150 150 150 151 154 155 159 166 163 158
218 238 240 263 285 301 276 254 246 255 256 257 257 264 261 268 272 277 293 294 294 297 298 303 234 200 185 175 169 163 158 156 154 155 153 155 156 158 158 158 160 163 164 167
254 210 240 279 274 245 106 53 314 281 272 274 257 254 254 265 274 291 280 285 286 290 292 296 218 197 183 171 168 162 158 160 162 161 161 159 161 159 159 162 157 150 160 165
217 219 229 250 221 284 291 70 321 326 295 301 261 237 247 260 292 282 274 302 303 296 290 286 215 190 175 169 164 162 162 164 167 167 168 167 167 164 163 161 151 144 150 149
208 227 244 217 263 286 267 305 332 299 258 22 340 265 268 289 276 270 335 322 313 302 289 257 198 181 171 169 163 163 167 169 174 174 175 176 176 174 162 156 151 147 152 150
290 221 214 247 258 259 21 323 336 224 14 313 311 321 314 301 262 299 301 301 302 293 286 217 185 178 175 166 162 166 170 176 179 180 179 181 181 175 162 150 150 156 153 147
316 320 340 283 290 345 312 337 327 274 289 298 300 302 310 301 290 291 296 297 301 294 276 191 181 177 172 169 165 167 175 177 180 181 180 181 175 168 160 150 153 158 153 149
307 348 323 259 294 291 295 271 258 271 281 299 297 294 305 305 304 308 304 303 294 289 239 193 181 171 170 171 171 171 176 177 179 180 179 176 167 163 161 154 157 160 164 163
282 276 282 318 211 308 345 322 324 319 309 295 285 291 302 309 312 311 312 301 295 273 201 185 173 169 165 172 173 179 173 178 180 183 183 175 165 162 160 161 162 167 174 160
274 317 323 298 309 325 327 347 323 317 311 299 318 311 305 312 320 311 297 298 296 211 168 173 173 168 169 170 174 175 175 177 180 180 179 177 168 166 160 161 167 175 178 171
223 306 339 320 318 320 318 328 323 322 313 343 324 308 325 332 318 302 303 315 360 131 146 152 151 159 168 171 178 177 174 180 178 176 177 178 174 170 165 165 159 171 167 174